This is the latest recevied weather packets stored in our database for station/object KC3BHK-2. If no packets are shown the sender has not sent any weather packets the latest 10 day(s).
| Time | Temp. | Humidity | Pressure | Rain* | Wind** | Luminosity | Snow |
|---|---|---|---|---|---|---|---|
| 1777925202 | 24.44° C | - | - | 0 mm | 3.58 m/s, 219° | - | - |
| 1777924896 | 25° C | - | - | 0 mm | 3.58 m/s, 150° | - | - |
| 1777924591 | 26.67° C | - | - | 0 mm | 5.81 m/s, 136° | - | - |
| 1777924287 | 25.56° C | - | - | 0 mm | 2.24 m/s, 183° | - | - |
| 1777923982 | 26.11° C | - | - | 0 mm | 4.92 m/s, 132° | - | - |
| 1777923677 | 25.56° C | - | - | 0 mm | 3.58 m/s, 219° | - | - |
| 1777923369 | 25.56° C | - | - | 0 mm | 2.24 m/s, 195° | - | - |
| 1777923065 | 26.11° C | - | - | 0 mm | 3.13 m/s, 200° | - | - |
| 1777922760 | 25.56° C | - | - | 0 mm | 2.68 m/s, 152° | - | - |
| 1777922455 | 25.56° C | - | - | 0 mm | 2.24 m/s, 125° | - | - |
| 1777922151 | 26.11° C | - | - | 0 mm | 3.58 m/s, 226° | - | - |
| 1777921846 | 25° C | - | - | 0 mm | 3.13 m/s, 181° | - | - |
| 1777921539 | 25° C | - | - | 0 mm | 4.02 m/s, 257° | - | - |
| 1777921234 | 24.44° C | - | - | 0 mm | 2.68 m/s, 183° | - | - |
| 1777920929 | 24.44° C | - | - | 0 mm | 4.02 m/s, 195° | - | - |
| 1777920625 | 25.56° C | - | - | 0 mm | 1.79 m/s, 172° | - | - |
| 1777920320 | 25° C | - | - | 0 mm | 4.02 m/s, 221° | - | - |
| 1777920016 | 25° C | - | - | 0 mm | 3.58 m/s, 214° | - | - |
| 1777919708 | 23.89° C | - | - | 0 mm | 5.36 m/s, 186° | - | - |
| 1777919404 | 23.89° C | - | - | 0 mm | 4.92 m/s, 200° | - | - |
| 1777919099 | 25° C | - | - | 0 mm | 3.13 m/s, 194° | - | - |
| 1777918795 | 22.78° C | - | - | 0 mm | 4.02 m/s, 172° | - | - |
| 1777918489 | 24.44° C | - | - | 0 mm | 6.26 m/s, 231° | - | - |
| 1777917877 | 22.78° C | - | - | 0 mm | 2.68 m/s, 155° | - | - |
| 1777917572 | 22.78° C | - | - | 0 mm | 2.24 m/s, 190° | - | - |
* Rain latest hour (hover to see other rain measurements)
** Current wind speed in m/s (hover to see current wind gust speed)